Погода в Белогорске

Россия / Республика Крым     45°03′25″N   34°35′59″E
темп.,
°C
ветер,
м/с
пор.,
м/с
влажн.,
%
обл.,
%
осадки,
мм/ч
давл.,
гПа
погр.,
м
17 апреля, сб
сб1700:00+3зюз358420 0.0 1021149
03:00+2юз238142 0.0 102149
06:00+2ююз2274100 0.0 102224
09:00+8юз015176 0.0 1022578
12:00+11всв1241100 0.0 10211491
15:00+12всв2243100 0.0 10201742
18:00+11в32517 0.0 1019940
21:00+6ююв347435 0.0 102081
18 апреля, вс
вс1800:00+5ююв345925 0.0 101984
03:00+6ююв2269100 0.0 101853
06:00+5юв1181100 0.1 101810
09:00+7в2480100 0.3 1017173
12:00+13вюв2260100 0.0 1016671
15:00+15св125679 0.0 1015985
18:00+12св3374100 0.0 1015424
21:00+9вюв1293100 0.0 101675
19 апреля, пн
пн1900:00+9ю1188100 0.0 101518
03:00+8юз1193100 0.0 101554
06:00+7зюз1192100 0.0 101514
09:00+11в117596 0.0 1015365
12:00+16всв2365100 0.0 10121012
15:00+12ссв2490100 1.6 1012350
18:00+11в2396100 1.7 1011180
21:00+10юв2394100 1.9 100995
20 апреля, вт
вт2000:00+10ююв4995100 3.1 1006342
03:00+10юз1197100 8.1 100336
06:00+11ююв3495100 4.1 1001109
09:00+10ю2491100 4.4 1000243
12:00+12юз9157086 0.0 10001295
15:00+9юз10198298 0.1 10001368
18:00+6зюз132192100 0.3 10031397
21:00+6зюз132193100 0.4 10071170
21 апреля, ср
ср2100:00+7зюз91590100 0.0 10121074
03:00+7зюз7138410 0.1 1014819
06:00+6юз510851 0.0 1016338
09:00+10юз476298 0.0 1017803
12:00+13зюз4657100 0.3 10171815
15:00+12зюз576483 1.5 10181399
18:00+11з577345 0.6 1019872
21:00+8ююз128872 1.0 102173